sat.trackr.live / text

‹ back to catalog

IRIDIUM 175

NORAD 43928 · 2019-002G

PAYLOAD ACTIVE UNKNOWN

§ Identity

Operator
Country
US
Launch date
2019-01-11
Launch site
AFWTR
Launch vehicle
Mass (kg)
RCS (m²)

Purposes: comms

External: N2YO · Heavens-Above · Gunter

§ Orbital elements

Epoch: 2026-09-19T21:20:35.075040Z

Period
99.75 min
Inclination
86.4469°
Eccentricity
0.0000920
Mean motion
14.43646429 rev/d
Perigee alt
745.8 km
Apogee alt
747.1 km
Semi-major
7,124.6 km
B*
2.9813e-5
RAAN
250.9136°
Arg perigee
272.2355°
Mean anomaly
87.8741°
Rev number
41,264

§ Raw data

IRIDIUM 1751 43928U 19002G   26262.88929485  .00000121  00000+0  29813-4 0  99992 43928  86.4469 250.9136 0000920 272.2355  87.8741 14.43646429412643

JSON: /api/v1/satellites/43928 · /tle

For live sub-satellite position, see the globe view (requires WebGL).

§ Visibility from observer

Set your observer location to see the next 7 days of passes ≥ 10°. The values pass through the URL so the page stays shareable.

No JS? Fill the form by hand. The geolocation button needs JavaScript.